GFSNE_250_spd_021.txt.gz
Wind_Speed
102 102 101 100 99 99 97 94 89 84 83 86 82 76 72 69 68 71 73 72 73 75 79 80 87 95 104 113 116 116 123 128 128 123 118 113 112 108
108 105 102 99 97 96 92 87 82 73 65 79 78 71 70 66 63 65 66 68 69 72 75 76 79 86 94 104 113 115 118 127 133 132 127 120 115 113
109 102 99 96 93 89 84 79 73 69 62 71 72 67 65 63 60 58 60 64 67 70 72 71 75 77 85 93 104 114 119 122 131 135 135 128 122 120
100 98 94 90 86 81 75 72 70 67 62 61 69 64 62 59 58 57 57 59 62 65 70 71 70 74 78 85 94 104 115 121 128 134 139 134 125 122
96 92 87 82 77 73 71 68 66 64 62 58 62 61 58 54 54 54 55 56 56 59 64 67 64 68 74 79 85 95 106 116 122 131 137 139 135 130
89 84 79 75 71 69 66 64 62 60 58 55 54 54 51 50 50 49 51 52 53 53 55 60 62 66 70 73 80 87 96 106 115 128 134 138 138 139
81 75 71 69 68 65 62 59 58 56 53 50 49 47 45 45 46 46 48 48 50 50 49 55 60 60 66 71 74 81 88 97 108 121 128 138 140 141
74 71 67 65 64 61 59 56 53 50 48 45 43 41 40 39 41 41 42 43 46 45 46 50 57 58 62 68 70 76 82 89 99 111 124 132 139 140
70 67 65 62 60 56 54 52 49 46 45 43 42 39 39 37 37 37 38 39 40 40 42 47 55 56 58 62 67 71 77 84 92 102 113 126 133 141
67 65 62 59 56 52 51 48 46 44 42 41 40 38 35 32 31 33 35 35 37 38 41 44 50 54 54 58 67 69 74 80 86 94 103 116 129 139
65 62 59 55 52 50 49 45 42 41 40 39 35 33 31 29 29 29 31 32 33 35 38 39 46 53 54 58 64 66 70 75 80 86 94 106 120 134
62 59 57 51 48 47 45 42 41 38 37 34 32 31 29 26 26 27 27 27 30 33 37 37 43 50 51 52 55 61 65 69 75 81 86 97 108 121
59 56 53 50 48 45 42 40 39 36 33 32 29 28 26 23 23 23 23 23 26 31 34 36 39 45 45 44 47 54 61 65 70 75 81 88 98 109
56 53 50 48 46 44 40 38 37 33 30 29 27 26 24 20 19 19 19 20 23 27 30 33 36 36 39 43 45 50 57 61 65 71 77 82 88 97
54 51 48 46 44 42 38 35 34 33 30 27 26 24 22 19 17 17 18 18 19 23 25 28 31 34 39 42 45 50 55 58 62 67 72 78 85 91
51 49 46 45 43 41 38 36 32 30 29 26 24 23 21 19 16 15 16 17 17 19 22 25 28 32 37 42 46 50 53 54 57 63 68 76 82 86
49 47 45 44 42 39 37 35 33 29 28 26 24 22 21 19 16 14 14 16 17 17 19 23 27 31 35 38 42 45 48 51 53 59 66 70 75 80
47 45 43 42 40 38 35 34 33 31 27 27 24 22 21 19 17 14 14 15 16 17 19 21 24 27 30 34 38 42 44 46 50 56 60 64 68 72
44 42 41 40 38 36 35 34 32 31 29 26 24 22 20 19 18 15 14 15 16 17 19 21 22 24 27 31 33 35 37 40 45 50 55 60 63 67
43 41 40 38 36 35 33 33 32 31 29 26 24 22 20 19 19 16 15 15 16 17 19 21 23 25 27 29 32 34 36 39 42 47 52 57 61 65
41 39 39 38 36 34 33 31 30 30 29 27 23 21 19 19 19 17 16 16 17 17 18 21 23 25 26 28 30 32 35 37 40 42 46 50 55 59
40 39 38 38 36 34 32 30 29 28 27 27 24 22 19 18 18 18 17 17 17 18 19 20 22 25 26 28 29 31 33 35 38 41 43 46 50 54
39 38 38 36 36 34 31 29 28 27 25 25 24 22 19 18 18 19 19 19 19 20 20 21 22 23 26 28 29 31 32 34 36 38 41 43 46 50

GFSNE_250_spd_024.txt.gz
Wind_Speed
106 105 108 108 104 100 96 93 91 86 86 90 87 81 76 73 70 70 71 72 72 71 69 70 76 79 84 91 99 108 113 122 127 127 123 119 116 114
109 110 109 104 99 96 94 92 90 84 76 80 83 76 72 71 68 68 67 68 70 70 68 67 70 72 77 85 92 100 110 117 125 130 130 127 122 120
111 110 106 101 98 96 94 91 85 80 73 72 76 72 68 66 64 63 63 63 65 67 67 66 69 70 71 77 85 94 105 113 118 126 131 131 128 125
107 106 105 99 94 92 87 81 77 73 69 66 71 66 63 59 58 58 58 59 61 62 62 64 66 67 68 73 78 88 98 106 114 123 131 129 130 130
102 99 96 90 88 84 78 74 70 68 66 61 62 62 59 56 55 53 53 56 56 57 57 60 63 66 66 69 73 79 91 99 106 118 127 132 133 132
99 91 87 83 81 77 72 69 65 63 61 58 56 56 54 51 48 48 49 49 53 52 53 54 58 64 64 63 70 74 83 93 99 114 123 130 134 135
89 87 82 75 74 71 67 63 61 59 58 56 54 52 49 46 44 43 43 45 47 45 48 49 52 58 63 60 64 71 76 84 94 102 120 128 135 137
86 82 76 71 69 65 64 60 57 55 55 52 49 47 44 41 41 39 39 39 43 38 44 46 48 51 60 59 60 67 74 79 89 97 110 128 133 138
81 77 74 67 66 61 58 57 56 54 53 50 47 42 40 39 39 38 37 37 39 35 41 43 45 48 55 55 61 67 71 76 84 93 103 115 130 137
76 74 70 63 62 58 55 54 53 52 50 46 43 42 40 36 35 35 35 34 35 34 38 39 42 47 50 52 60 64 66 72 78 87 96 104 120 133
74 69 66 60 58 55 54 53 52 50 46 43 41 39 37 34 33 32 31 31 31 33 36 36 40 43 48 50 57 59 60 65 72 80 89 96 107 123
70 64 64 58 55 52 51 50 49 47 43 39 37 36 34 32 31 31 29 29 29 31 33 34 35 40 44 44 48 50 56 62 68 74 82 89 98 112
65 61 59 57 54 49 49 48 48 45 40 37 34 33 31 30 28 28 27 26 26 28 30 32 33 36 38 39 44 48 53 57 64 70 77 84 92 104
62 59 56 54 51 48 47 47 47 43 38 35 33 31 29 27 25 25 24 24 24 25 27 29 31 33 34 36 41 46 50 53 59 66 71 80 88 97
60 57 54 51 47 46 44 44 43 40 36 34 31 30 28 25 24 22 21 21 21 22 24 26 28 31 34 36 39 43 48 51 56 61 67 76 83 89
57 55 52 49 46 44 42 42 41 37 33 31 29 28 26 24 22 20 20 20 19 19 21 22 24 28 32 36 39 43 46 48 53 58 63 70 77 81
55 52 49 47 44 42 41 41 38 35 32 30 28 26 25 22 21 19 18 18 17 18 19 20 22 26 31 34 37 41 44 47 52 57 63 69 74 79
54 51 48 46 43 41 40 39 38 34 32 30 28 25 24 22 20 19 17 18 17 17 18 19 22 25 29 31 33 36 40 44 49 54 59 63 68 74
50 48 46 44 42 39 39 39 37 34 32 30 28 25 23 22 20 18 16 17 17 17 18 19 21 24 28 29 32 34 37 40 44 49 53 56 62 68
47 46 44 43 41 39 37 37 36 33 32 30 27 25 22 22 20 17 15 16 18 18 18 19 21 23 25 29 29 31 34 38 43 48 52 54 59 64
46 44 44 43 40 38 36 35 33 32 30 29 27 24 21 20 20 18 16 15 17 19 18 19 21 23 26 28 31 33 35 38 40 43 47 50 53 58
44 43 43 41 38 37 36 34 31 31 29 27 26 25 22 19 19 18 16 16 16 19 20 20 22 24 25 27 28 29 32 34 36 39 42 45 48 53
43 42 41 39 37 36 34 33 31 30 28 26 25 23 22 20 19 18 17 16 17 18 21 22 22 24 25 27 29 30 30 32 35 37 40 42 45 48

GFSNE_250_spd_027.txt.gz
Wind_Speed
107 106 108 106 108 112 113 107 96 90 91 92 89 85 78 71 66 65 65 65 65 65 67 68 73 77 82 86 91 99 107 110 117 124 124 121 120 123
105 108 110 108 109 111 109 105 100 94 86 87 84 77 73 67 63 62 63 62 63 63 63 64 65 68 73 79 85 92 99 107 112 118 124 127 125 127
108 110 112 112 108 107 105 100 97 93 85 79 74 71 67 65 63 61 61 61 60 61 61 62 63 66 68 71 77 85 92 99 109 115 120 129 132 132
109 109 110 108 101 101 99 94 90 85 77 71 71 67 64 61 58 57 56 55 57 58 58 59 61 64 66 69 72 78 85 93 101 112 119 123 135 137
106 109 103 98 94 91 89 86 82 76 71 66 65 62 60 56 54 52 52 52 53 54 54 56 59 62 65 67 70 75 79 87 96 105 116 121 128 140
98 99 96 93 88 85 83 78 73 69 66 63 59 58 55 51 49 49 49 48 50 49 50 52 54 58 62 65 66 69 75 81 89 98 107 116 123 136
98 93 90 88 82 79 75 70 67 65 62 59 57 54 52 51 48 45 45 46 45 45 48 47 50 53 57 62 64 66 70 76 83 91 100 110 120 131
95 91 86 81 77 73 68 66 63 61 58 55 53 51 49 48 45 42 43 43 45 39 47 44 47 50 52 57 61 64 66 72 79 86 94 103 113 125
91 87 82 78 71 68 65 63 61 57 54 53 52 49 49 46 43 40 39 39 40 38 43 41 44 47 47 52 58 63 63 70 74 80 88 95 104 116
85 80 78 73 69 66 63 60 56 54 50 49 49 47 46 44 44 39 37 35 37 38 38 36 41 42 45 49 55 52 55 62 69 75 81 89 97 107
80 77 75 70 66 63 60 58 54 50 47 47 46 46 44 42 41 38 37 36 33 35 36 35 37 37 40 44 46 47 53 59 65 71 76 84 92 100
77 72 70 65 62 60 57 55 51 48 45 44 44 44 41 39 38 37 37 34 32 33 33 33 33 33 36 38 41 44 51 57 63 68 72 80 87 95
72 67 66 62 59 56 54 51 48 45 43 43 43 41 37 35 35 34 34 32 32 32 30 30 30 30 33 34 38 43 47 55 60 67 70 76 84 92
69 65 62 59 56 54 51 49 46 43 41 42 42 39 35 33 32 32 32 30 29 29 28 26 27 28 29 32 37 41 46 53 57 62 66 72 80 89
65 62 59 56 53 51 49 46 42 40 40 40 40 37 34 31 31 31 30 28 27 26 26 25 25 25 27 30 34 37 42 46 54 59 64 69 78 86
62 60 57 54 51 48 45 43 41 39 38 38 37 35 33 31 30 29 28 26 26 25 24 24 24 24 26 29 32 36 39 42 48 55 62 67 74 83
60 55 53 50 47 45 42 40 39 37 35 35 34 32 31 29 28 27 26 24 24 24 23 23 23 23 24 28 32 35 37 41 45 51 59 65 69 76
55 53 50 47 44 42 39 37 37 36 35 34 32 30 28 27 27 25 24 23 23 22 22 22 22 22 24 27 30 33 35 38 44 51 57 60 65 72
52 50 48 45 43 41 38 36 35 35 34 33 31 29 27 25 25 24 23 22 22 21 21 21 22 22 24 26 28 30 34 37 41 48 54 58 61 67
50 48 46 43 41 40 38 36 34 33 32 31 30 27 25 24 23 23 21 20 21 21 21 21 21 22 24 26 28 30 32 35 39 45 50 53 57 63
50 47 45 42 40 38 36 35 33 32 31 29 28 26 24 23 22 21 20 19 20 20 21 21 22 23 24 26 28 30 33 36 39 41 44 47 51 56
49 47 45 41 39 37 36 34 33 31 29 28 27 26 24 22 21 20 19 18 19 20 20 22 23 23 25 26 27 29 32 34 37 41 47 50 52 55
48 46 44 41 39 37 36 33 31 29 28 26 25 24 23 22 21 19 19 19 18 19 20 22 23 24 25 27 28 29 31 33 36 40 42 43 46 50

GFSNE_250_spd_030.txt.gz
Wind_Speed
110 110 107 107 109 110 113 112 114 105 101 102 98 95 91 85 76 71 68 64 62 61 61 63 67 72 77 81 87 92 98 104 107 119 124 123 124 120
106 103 106 106 108 111 112 111 110 107 101 93 95 92 86 81 72 69 64 60 58 57 58 59 61 65 71 76 82 89 93 99 106 110 121 127 128 126
104 105 106 106 109 111 109 106 102 99 94 88 88 84 79 73 69 64 60 57 55 55 55 57 58 61 65 72 77 82 89 95 101 108 113 122 129 131
104 106 108 108 110 109 106 101 97 92 87 82 82 77 73 67 62 59 56 54 54 53 53 55 57 60 63 66 71 76 83 89 96 102 111 117 125 131
105 106 108 108 106 103 98 94 90 85 80 76 74 71 67 61 59 56 53 52 53 50 51 52 54 56 59 62 65 71 78 84 90 96 103 113 122 127
106 107 105 104 100 96 91 87 82 79 75 71 67 64 60 58 55 54 51 50 48 48 50 50 51 52 55 59 62 65 71 79 85 91 95 105 116 125
106 104 101 99 96 91 87 82 76 71 69 65 62 60 57 53 53 50 48 50 45 46 48 43 45 47 49 53 57 61 67 73 81 86 91 97 108 117
100 99 96 94 89 85 80 76 70 66 65 61 58 57 53 51 50 48 46 44 44 40 46 38 42 44 45 50 52 57 62 68 74 82 87 91 98 108
97 95 91 87 83 78 74 70 66 63 61 60 57 51 50 48 48 45 44 41 38 42 38 34 41 41 42 45 47 52 58 64 71 76 82 87 92 100
93 88 85 80 76 74 70 67 63 59 56 53 53 51 48 46 44 43 43 39 35 37 36 31 39 37 38 41 44 48 53 59 65 70 75 81 89 92
86 81 78 75 73 70 66 62 59 55 53 51 49 48 46 43 42 41 39 39 35 33 34 32 33 33 36 37 41 44 48 50 53 63 68 76 84 87
79 77 73 70 67 64 61 60 57 53 50 47 46 45 42 39 39 39 37 36 36 33 33 31 31 29 33 32 36 40 41 44 54 62 67 73 78 84
75 71 68 66 64 62 58 56 54 50 47 44 42 40 38 37 37 36 35 35 34 34 31 29 29 27 27 28 32 37 39 45 55 60 63 68 74 80
71 67 65 63 60 57 55 52 50 48 45 43 40 37 35 34 34 32 33 34 33 30 28 28 26 25 24 26 30 34 39 46 52 56 58 64 70 77
69 65 61 59 57 53 51 49 47 45 43 41 39 36 33 32 32 31 31 31 31 29 28 25 22 23 23 24 28 33 38 42 47 51 52 58 66 74
66 61 57 55 52 50 48 46 44 43 41 39 37 35 33 32 31 30 31 30 30 28 26 24 21 21 22 24 26 30 34 40 44 47 49 54 64 73
62 56 53 53 51 49 47 45 42 40 39 38 34 33 31 31 30 29 29 28 27 26 24 23 21 21 22 23 24 27 32 36 40 44 48 52 61 71
59 56 53 51 49 46 44 42 40 38 37 36 32 31 30 30 30 28 27 27 25 24 23 21 21 20 21 22 23 25 30 33 37 43 48 50 57 67
58 56 53 50 48 46 43 40 39 37 36 34 31 30 29 28 27 26 25 26 24 22 21 20 20 21 21 22 22 24 28 33 38 42 47 51 55 64
56 55 54 52 48 45 42 40 38 36 35 32 30 29 27 27 26 24 23 24 23 22 20 19 19 20 20 20 21 22 26 34 40 42 44 49 57 63
55 54 52 51 47 44 41 39 37 35 34 32 30 27 26 25 25 23 22 23 22 21 19 19 19 20 20 20 21 22 24 30 37 41 43 47 55 61
53 51 50 48 45 42 39 36 35 33 32 30 29 26 25 24 24 22 21 21 21 20 19 19 19 20 21 21 21 22 24 28 33 38 41 45 51 57
50 48 48 45 43 40 38 35 32 31 30 29 28 26 25 23 22 21 20 19 20 19 19 19 19 19 21 21 21 23 24 26 31 36 40 44 47 51

GFSNE_250_spd_033.txt.gz
Wind_Speed
102 106 105 106 107 108 110 111 113 112 112 108 106 103 100 98 93 86 80 73 67 62 56 56 57 62 65 73 80 84 87 97 103 104 108 120 122 122
106 104 104 105 107 109 113 115 114 112 105 101 98 96 93 89 86 81 76 68 63 57 55 52 55 55 58 64 72 80 86 91 98 105 107 112 122 127
105 105 105 107 109 111 114 114 109 102 97 97 92 89 83 78 76 75 69 64 59 55 52 52 54 54 55 60 66 71 79 88 95 99 105 111 117 127
105 105 107 109 110 112 109 106 102 98 92 88 84 80 75 72 69 68 65 59 56 52 50 52 52 52 53 56 60 66 73 80 91 97 100 106 115 120
103 105 107 108 108 105 100 96 93 88 84 79 76 73 70 67 65 61 59 54 51 49 51 51 48 50 51 53 58 62 69 76 82 92 98 101 108 117
106 108 109 107 103 98 94 88 84 81 78 74 71 68 65 62 59 57 54 51 47 48 49 46 48 49 49 52 54 58 63 71 78 86 94 100 102 110
110 109 105 103 98 92 87 82 79 78 75 72 68 64 60 58 55 52 51 49 43 47 47 41 49 48 47 50 52 54 59 65 73 81 87 93 100 105
110 107 105 101 94 86 82 78 75 72 69 66 63 59 55 53 52 50 49 46 43 45 45 38 46 46 46 45 48 50 55 60 66 76 84 89 95 101
111 108 102 96 89 84 79 75 71 68 65 63 62 58 55 50 49 48 45 44 41 43 45 39 40 43 42 43 45 47 51 57 62 69 77 85 89 94
110 105 98 91 85 81 76 72 68 65 62 59 58 56 52 50 47 44 42 40 39 40 45 37 35 37 38 41 42 43 47 52 58 64 70 78 84 88
107 99 91 86 81 77 73 69 66 62 59 55 53 51 50 47 45 42 40 39 38 37 40 35 30 32 34 38 39 41 44 50 53 58 63 70 77 84
101 91 86 80 77 73 68 64 61 58 55 52 49 48 47 45 41 40 39 37 39 35 33 30 30 28 29 36 35 38 41 46 48 53 57 63 71 78
94 86 81 75 72 68 63 59 56 55 52 51 47 44 43 42 40 39 38 37 36 34 29 27 27 27 28 30 33 35 38 42 45 49 55 62 69 74
89 82 77 71 68 63 59 56 54 53 51 48 45 42 39 37 37 37 36 37 35 30 28 27 26 26 26 26 30 32 36 40 43 46 50 54 60 68
83 79 73 67 65 61 58 55 52 51 49 47 44 41 38 36 34 34 35 34 33 29 26 24 23 24 24 24 26 29 33 36 39 41 46 50 55 63
78 75 70 64 62 59 56 53 51 49 47 45 43 40 38 36 34 33 32 32 30 28 25 23 21 21 22 22 23 25 28 32 34 36 41 45 50 58
75 72 66 63 60 56 54 51 49 47 45 43 41 39 37 36 33 32 31 30 28 26 24 21 20 20 21 19 20 22 25 27 30 34 37 42 48 57
71 68 64 60 57 55 53 50 47 45 43 42 39 38 36 34 32 31 30 28 26 24 23 21 19 19 19 18 19 21 23 26 31 34 36 41 48 53
67 65 61 58 56 54 52 48 45 44 41 40 38 37 35 33 32 30 28 27 24 23 21 19 18 17 18 17 18 19 21 28 30 32 35 42 47 52
65 63 59 58 55 52 49 45 43 41 39 38 36 35 34 32 31 29 27 26 24 22 20 17 17 17 17 17 18 19 22 25 27 32 35 40 46 52
64 62 58 55 53 50 47 44 41 40 37 36 34 33 32 31 29 28 26 25 23 21 19 17 16 16 16 17 18 19 21 24 27 32 36 40 43 48
59 57 55 52 49 48 46 42 39 38 36 34 32 31 30 29 28 27 25 24 22 21 19 17 15 15 16 17 18 19 20 23 26 31 35 40 43 46
54 53 51 49 47 45 43 40 37 35 34 32 31 30 30 28 27 26 24 23 22 21 18 17 15 14 16 16 19 20 22 23 26 30 34 38 41 44

GFSNE_250_spd_036.txt.gz
Wind_Speed
95 96 102 106 107 109 109 109 111 110 109 109 105 103 101 98 94 90 84 79 73 67 62 61 60 60 60 63 68 71 77 86 91 88 89 99 116 122
97 103 104 104 108 109 109 111 112 110 106 103 98 92 89 85 82 80 76 72 67 62 57 57 56 56 57 58 62 67 71 79 88 89 84 92 102 119
103 105 105 108 110 110 111 112 110 107 100 95 91 86 81 76 74 73 69 65 61 58 55 54 54 52 51 53 58 64 67 72 81 88 85 86 98 107
106 106 109 111 112 112 111 109 104 96 91 86 85 82 80 75 71 68 66 61 57 54 53 53 51 48 48 50 52 57 63 69 74 82 86 84 92 105
106 109 111 113 112 112 110 103 97 93 87 82 81 78 75 69 66 62 60 57 51 51 51 50 47 48 49 49 50 54 59 64 68 76 84 87 88 97
110 113 115 114 114 110 104 101 96 89 83 80 76 72 68 65 62 59 58 52 48 46 49 45 47 47 46 47 49 53 56 59 65 71 79 84 86 93
113 116 115 115 110 108 104 98 90 84 80 76 72 69 65 62 58 55 55 52 46 45 44 39 47 42 44 45 47 48 51 56 61 67 75 80 84 90
116 117 115 113 111 106 99 91 85 79 75 72 69 65 62 59 55 51 50 49 46 44 43 36 45 40 44 43 45 47 50 54 58 63 70 77 80 85
118 116 116 114 108 102 93 87 82 74 71 67 64 61 59 55 52 48 45 45 43 43 42 34 41 36 40 44 45 46 47 51 55 59 64 72 78 81
117 118 116 110 103 95 90 84 77 70 67 62 60 58 57 55 52 49 45 41 38 40 45 34 36 35 38 44 43 43 44 47 50 54 60 66 73 78
119 117 113 105 97 90 84 79 73 67 63 59 58 57 55 53 51 48 43 41 37 36 42 36 35 37 34 40 43 42 42 46 46 49 54 60 66 73
118 114 107 98 91 86 79 76 69 64 60 58 56 56 53 51 49 47 43 38 37 32 39 34 36 37 30 34 41 39 41 42 43 46 50 54 59 66
114 108 98 92 87 81 74 72 64 62 58 57 55 53 51 48 47 45 44 40 36 32 35 34 34 32 33 30 36 37 38 38 41 44 46 50 56 62
108 100 94 88 81 77 71 67 62 59 56 54 53 52 50 46 44 41 42 39 38 33 32 34 30 28 29 31 32 33 34 36 39 42 43 48 54 58
101 93 89 84 77 71 68 63 60 57 56 54 52 50 48 45 42 38 39 38 34 33 31 31 29 27 27 28 28 29 32 34 37 39 41 45 50 55
93 88 85 80 74 68 65 60 57 56 55 53 51 49 46 43 41 39 36 36 33 32 29 28 26 24 25 26 26 26 28 30 33 35 39 42 46 51
89 85 80 76 70 65 62 59 57 55 54 50 48 46 44 41 39 37 36 33 32 30 31 25 23 24 23 23 23 25 26 28 31 32 35 38 43 49
84 81 77 72 67 63 61 58 55 53 52 47 45 43 41 40 37 35 35 32 29 29 27 25 22 21 23 22 22 23 26 26 27 30 34 38 41 45
77 72 71 67 64 61 59 57 52 50 48 44 43 41 39 38 36 33 33 31 28 26 24 23 21 20 20 20 20 22 24 24 26 29 32 36 40 42
73 68 67 66 61 59 56 53 50 48 45 42 40 38 37 36 34 32 30 29 26 24 22 21 19 18 19 19 20 22 23 23 25 28 31 33 36 40
70 68 64 64 60 56 53 50 47 45 42 40 37 35 34 33 32 30 29 27 25 23 20 20 17 18 19 19 19 21 22 23 24 27 31 33 35 38
69 67 62 60 55 53 50 47 44 41 39 38 35 32 32 32 31 29 27 27 24 22 19 18 17 17 18 18 19 21 22 23 25 27 30 32 34 37
68 65 60 57 53 50 47 45 42 39 37 37 33 31 30 29 29 27 26 25 22 21 18 17 16 17 17 18 19 20 22 23 25 27 29 32 33 35

GFSNE_250_spd_042.txt.gz
Wind_Speed
85 90 93 96 98 97 98 99 103 101 107 112 114 111 110 107 102 102 99 95 88 84 79 75 71 69 68 68 68 68 68 68 70 73 78 86 94 95
90 94 97 98 98 99 101 105 108 108 110 116 117 114 110 105 100 96 91 85 81 77 73 68 65 62 62 62 63 64 65 66 66 68 71 77 85 90
95 98 101 101 101 103 105 110 112 113 114 119 117 114 106 106 98 89 81 77 74 71 69 64 59 57 56 57 58 59 60 62 62 63 66 70 76 83
99 100 102 103 105 109 112 114 115 117 120 120 118 114 107 100 91 83 78 73 69 66 64 61 56 53 52 53 54 55 56 58 59 60 62 64 69 76
101 102 104 107 110 113 114 116 118 121 123 119 116 112 105 96 87 80 76 71 65 61 58 56 55 52 49 50 50 51 52 54 55 57 60 62 64 70
104 106 109 111 113 115 117 119 122 125 123 118 112 108 103 93 83 77 74 68 61 58 56 53 54 51 48 48 47 49 50 52 53 54 57 59 61 65
108 110 111 113 115 117 120 123 126 125 120 115 109 105 97 88 79 75 70 64 59 56 55 46 53 51 46 46 46 46 47 49 50 51 53 56 59 63
108 110 113 115 118 119 122 127 127 123 117 111 104 99 90 83 76 71 66 61 58 52 53 45 46 47 46 43 43 43 44 46 47 49 51 53 56 60
109 112 115 119 119 123 126 126 123 119 114 105 100 93 85 78 73 68 63 59 56 51 50 48 43 42 43 42 42 41 41 42 45 46 48 51 54 57
111 114 118 120 124 126 127 123 119 113 106 99 93 86 80 74 69 63 59 58 54 50 47 49 44 37 40 41 40 40 38 41 43 44 46 50 53 56
113 116 120 124 127 125 123 119 113 109 97 90 86 80 76 70 65 60 58 57 55 49 45 45 45 38 34 39 41 38 37 40 41 43 45 48 50 53
114 119 122 125 125 121 118 112 107 102 92 82 82 75 69 65 62 58 57 55 53 50 44 41 40 40 30 36 39 39 35 37 39 41 43 46 47 50
116 119 120 121 119 117 112 106 101 94 86 81 74 69 64 62 59 57 55 53 51 48 43 38 37 36 36 29 37 37 36 36 37 40 41 43 45 48
116 116 117 113 111 111 107 98 93 86 82 75 71 66 60 59 56 55 53 50 48 45 41 37 35 37 35 33 30 34 36 35 35 37 39 40 41 45
119 116 111 109 108 104 97 90 85 81 76 70 65 62 59 57 54 52 49 47 44 42 40 35 33 35 35 31 31 32 33 33 32 34 33 33 34 38
111 108 109 107 100 94 88 85 80 75 70 66 63 60 56 54 51 49 46 43 41 39 38 35 30 32 35 31 30 32 30 29 30 30 30 30 30 33
105 105 102 97 91 88 83 79 75 71 67 64 61 57 53 50 48 46 43 40 38 35 34 35 31 28 32 31 30 29 26 28 29 28 28 29 29 31
99 95 91 88 85 81 77 74 71 67 64 60 57 53 50 47 44 42 40 37 35 33 30 32 32 29 30 29 28 25 24 26 26 26 27 28 28 30
94 89 85 82 79 76 73 68 65 62 60 56 53 49 46 43 41 40 37 35 33 30 28 29 29 28 28 27 26 23 23 25 24 24 26 26 27 29
85 82 79 77 74 70 68 64 62 59 56 52 48 45 42 40 38 36 34 33 31 29 26 27 27 26 26 25 24 21 23 24 24 24 24 24 26 28
80 77 74 72 69 66 63 61 57 54 51 48 44 41 39 37 35 34 32 31 30 27 26 26 26 25 24 23 22 20 23 23 23 23 23 23 24 25
76 73 70 67 66 62 59 55 52 50 47 43 41 39 37 35 34 32 31 29 27 26 25 25 25 23 22 22 21 19 21 22 22 23 23 23 24 26
73 70 67 65 62 58 54 50 47 44 44 40 39 37 35 32 31 30 29 27 25 24 23 24 24 22 21 21 20 20 19 22 21 22 22 23 25 27

GFSNE_250_spd_045.txt.gz
Wind_Speed
92 97 93 93 94 99 102 105 106 106 107 110 113 114 114 113 111 113 111 106 104 103 98 92 88 84 80 75 71 69 66 64 62 61 59 59 65 73
98 94 95 96 98 101 103 105 108 110 109 112 114 117 118 119 118 114 108 103 102 97 91 86 84 78 72 68 65 63 64 61 59 58 57 58 62 68
96 97 98 100 103 105 107 109 111 111 112 114 118 120 120 121 118 110 107 104 98 91 84 79 77 74 66 62 58 58 58 58 56 55 54 56 59 64
95 98 102 105 107 109 111 112 113 115 117 117 120 123 124 123 115 107 104 102 95 84 79 76 72 69 63 58 54 54 55 55 52 53 53 54 56 62
100 102 105 106 108 111 112 113 116 118 119 120 120 125 123 118 110 105 102 95 87 80 74 72 69 65 60 56 52 52 53 52 50 51 52 51 53 57
101 102 105 107 111 113 115 118 119 119 120 122 124 124 120 113 108 103 95 88 81 77 72 67 63 61 58 55 50 50 49 49 49 49 49 50 51 53
100 104 106 109 111 114 116 117 119 121 125 128 126 122 116 112 108 98 87 81 79 71 67 62 58 56 55 53 51 46 46 46 47 48 47 47 50 52
101 105 109 111 113 113 114 118 122 125 128 129 125 121 116 113 103 92 83 78 74 70 62 60 56 53 51 50 52 48 45 45 44 45 45 44 47 50
106 109 111 114 115 117 119 118 123 127 127 126 122 119 113 107 94 85 79 72 69 64 59 58 54 52 50 48 52 48 44 44 43 42 42 44 46 48
110 112 114 115 119 122 123 124 123 122 123 119 115 111 108 97 89 79 75 69 65 60 56 57 52 50 49 45 48 48 42 41 42 40 40 42 44 47
110 111 114 117 119 121 124 123 122 123 123 118 110 103 96 90 86 75 70 64 63 61 55 54 51 50 47 42 45 45 41 39 40 39 39 40 42 46
107 111 114 117 118 119 122 125 122 119 117 113 106 95 87 82 78 73 67 62 60 60 54 53 48 45 48 38 43 42 40 37 38 38 38 39 41 44
107 109 112 116 118 120 121 118 117 116 109 104 98 90 81 75 73 68 64 61 58 58 54 50 45 42 43 42 34 42 39 37 36 36 37 38 39 42
109 110 113 115 118 119 118 117 113 106 100 93 88 84 77 71 67 64 63 61 58 55 51 47 44 40 41 38 33 38 38 36 34 35 35 37 38 41
112 114 116 117 117 117 114 108 105 100 93 86 81 78 73 69 64 60 58 56 54 53 49 45 42 38 39 38 30 36 34 35 33 33 34 35 37 39
113 115 117 118 115 110 103 100 95 90 86 81 77 74 68 63 60 57 55 53 51 48 45 42 39 36 36 36 31 32 30 31 32 33 32 33 33 35
110 112 111 106 102 99 96 92 87 82 80 77 73 69 64 61 56 54 51 48 47 44 42 39 37 34 32 33 31 30 29 29 29 29 29 29 30 31
111 107 101 97 95 93 90 85 81 78 74 72 69 65 61 57 54 50 47 45 43 41 38 36 35 33 31 30 29 27 28 28 27 27 26 26 28 30
105 99 95 92 90 87 83 79 75 73 69 68 64 60 56 53 50 46 44 42 40 38 34 33 33 32 30 28 27 25 26 26 25 24 24 25 26 26
101 94 91 87 83 80 77 74 71 68 66 62 58 54 51 49 46 43 42 39 37 35 32 31 31 30 28 27 27 25 26 24 23 22 23 24 24 26
95 90 86 83 78 76 73 70 67 63 60 57 54 52 49 45 43 42 40 37 35 33 31 29 29 28 27 27 26 24 25 23 22 21 21 22 24 25
89 84 82 80 76 72 69 66 62 58 55 53 51 49 46 43 41 39 37 35 33 31 29 28 27 26 26 26 25 23 24 21 21 20 20 22 23 25
84 80 78 76 71 68 65 61 57 54 51 48 48 47 43 41 38 37 35 32 31 29 27 27 26 25 25 25 23 22 22 21 20 20 20 22 23 25

GFSNE_250_spd_048.txt.gz
Wind_Speed
88 92 94 96 99 102 104 104 105 105 106 110 114 118 118 117 116 112 109 109 109 113 111 107 104 101 96 92 84 78 74 72 69 68 64 61 59 59
91 94 99 99 102 104 105 107 108 108 110 113 115 116 117 118 119 116 114 112 114 113 110 102 102 101 94 87 78 74 70 66 64 63 59 56 54 54
93 96 101 104 103 105 106 106 108 113 114 114 116 118 119 119 119 117 116 113 114 112 107 102 98 94 87 81 74 70 64 59 59 58 56 52 50 50
95 98 101 103 105 106 107 108 112 116 119 120 120 120 121 123 122 119 117 116 112 110 107 99 93 84 80 75 69 64 59 55 54 52 53 51 49 48
97 99 101 103 106 108 108 114 117 120 123 122 118 119 121 123 121 119 118 115 110 107 102 91 83 77 76 71 66 58 52 50 50 49 51 49 47 48
95 99 101 104 105 109 114 118 123 124 123 121 120 121 121 122 122 118 112 111 106 101 88 83 76 72 69 66 62 56 50 45 48 46 46 46 46 47
95 99 102 105 110 114 119 120 119 118 120 123 124 123 124 124 122 116 109 103 99 92 78 78 71 68 64 60 57 53 52 44 41 46 44 43 44 45
95 100 105 110 115 117 116 113 113 118 121 126 126 126 125 125 122 116 107 98 92 87 74 73 67 64 59 56 55 52 51 45 43 42 45 42 43 44
101 107 110 111 111 112 110 112 115 118 121 122 123 124 122 121 119 111 102 91 85 79 69 66 63 60 56 53 52 51 50 44 42 43 43 40 41 42
103 103 105 107 109 107 108 110 111 117 122 124 125 124 122 115 108 102 95 85 81 74 67 59 61 59 56 52 51 49 48 42 41 41 41 39 39 40
93 94 97 99 102 105 108 110 114 118 121 123 126 125 117 108 100 92 88 80 75 71 67 59 59 57 55 50 48 47 46 41 39 39 38 37 37 38
96 97 98 101 105 110 112 115 115 117 117 119 117 112 107 100 92 86 82 75 70 66 63 57 57 52 54 48 46 44 44 40 36 36 36 35 36 38
102 100 101 103 108 110 113 117 119 118 116 113 108 104 98 92 88 81 76 71 66 63 59 54 55 50 48 50 43 41 42 39 35 33 35 35 36 37
106 104 104 107 109 111 115 117 116 112 109 104 100 97 93 86 82 75 70 68 63 60 57 53 51 47 45 44 44 37 39 37 35 33 34 34 35 36
107 105 108 110 112 115 117 115 110 106 103 100 95 91 86 81 77 70 65 63 62 59 53 51 47 43 41 41 39 35 36 35 34 33 32 32 34 34
109 112 112 115 118 116 114 111 107 103 98 93 89 84 81 76 72 67 63 59 56 53 50 47 44 41 38 38 37 32 33 32 33 32 31 31 31 33
117 116 117 118 117 114 111 106 101 95 90 86 83 80 77 71 68 62 57 54 51 48 46 43 41 38 36 35 33 31 30 30 30 30 30 30 31 31
119 119 119 115 111 107 103 99 95 91 85 81 78 76 72 68 63 58 54 51 47 45 42 40 38 36 33 32 30 30 29 28 28 28 28 28 28 29
124 123 117 112 107 102 96 91 88 86 82 77 74 72 66 61 58 54 51 47 45 42 40 38 36 34 31 29 29 27 27 27 26 25 26 26 26 27
125 120 113 106 102 95 90 86 85 83 79 73 68 66 61 57 54 51 48 45 42 40 38 36 34 33 30 29 27 26 26 25 24 24 25 25 25 26
124 115 109 104 97 91 87 83 81 77 74 68 63 61 57 54 51 48 45 42 39 37 35 34 32 31 29 28 26 24 24 23 22 22 23 24 25 26
116 112 106 99 92 88 84 80 76 72 68 63 59 58 54 51 48 45 42 40 37 34 33 32 30 29 28 26 25 23 23 22 21 21 22 24 24 25
110 105 98 94 89 84 79 75 71 67 63 60 56 53 52 49 45 42 40 37 35 33 31 30 29 28 26 25 23 22 22 21 19 21 22 24 24 25

GFSNE_250_spd_054.txt.gz
Wind_Speed
79 81 79 84 89 90 94 96 99 101 100 103 100 99 102 103 107 106 109 111 113 111 111 109 110 110 112 113 108 98 96 88 80 77 76 76 74 74
85 87 89 91 92 95 98 100 100 97 95 91 93 94 99 105 108 111 112 113 111 107 105 106 110 114 115 114 105 94 89 82 76 72 71 70 68 67
79 81 83 85 88 90 91 91 94 88 89 89 86 95 97 101 106 109 109 107 105 107 108 110 112 114 115 111 100 91 84 76 72 67 65 65 64 61
79 81 84 85 87 90 91 86 88 86 88 85 89 94 102 107 108 108 109 106 105 108 111 113 114 112 109 103 93 85 79 73 67 63 60 61 57 57
82 83 86 83 80 82 85 84 84 85 84 86 89 96 100 102 105 109 107 106 108 111 114 115 116 108 100 93 84 79 73 68 64 58 55 54 53 54
74 76 79 80 80 80 82 86 85 84 88 92 94 99 99 103 108 108 103 106 110 113 117 115 111 104 94 87 80 75 69 65 61 57 53 50 49 49
76 77 77 77 80 84 81 78 81 87 89 92 100 101 102 102 104 103 108 111 112 116 114 111 108 96 86 80 73 69 65 63 60 55 51 49 48 48
76 76 78 82 81 80 77 79 85 87 91 98 101 103 101 105 104 106 109 113 112 110 110 104 101 92 85 77 72 65 60 58 56 53 50 47 45 45
78 80 75 72 75 80 82 86 90 91 96 104 103 107 106 108 108 110 114 115 111 107 104 96 96 87 79 77 70 63 57 56 53 51 48 44 43 44
73 75 79 82 80 85 84 83 86 94 103 110 113 112 113 114 117 117 117 112 108 102 100 89 90 83 79 74 66 60 55 54 52 49 46 42 41 43
71 77 84 85 87 82 79 80 89 97 107 113 115 115 118 121 122 118 113 107 103 99 93 87 85 79 75 70 63 58 54 52 49 46 44 41 40 42
72 72 78 80 77 83 83 87 92 98 107 113 115 120 123 124 126 119 112 104 100 93 89 83 79 73 70 65 58 51 49 48 45 43 40 39 39 40
80 81 82 83 81 83 88 94 98 104 113 116 119 123 125 126 119 114 107 101 97 90 84 78 75 69 64 61 56 49 47 45 42 40 37 37 38 38
87 88 88 87 87 90 94 100 106 112 118 120 122 125 126 121 113 107 102 98 93 86 79 74 70 65 61 56 52 48 44 41 40 36 36 37 35 35
91 93 92 92 92 97 102 107 113 118 121 125 125 126 121 116 109 102 98 94 88 80 74 68 65 60 57 52 50 44 43 38 38 33 35 34 33 33
95 94 96 95 95 101 107 113 118 122 126 126 126 121 116 111 106 98 96 90 82 75 68 64 61 57 52 48 46 41 40 35 36 34 32 31 31 31
103 101 98 100 102 106 113 116 121 128 129 129 125 119 112 106 100 95 88 84 78 71 64 59 56 54 49 46 43 39 37 35 34 34 31 30 29 28
106 102 101 103 106 113 117 120 127 132 131 129 120 113 106 100 97 90 83 79 71 66 60 56 53 50 45 43 41 36 35 33 32 31 30 29 27 26
105 102 104 109 114 116 121 126 130 130 127 121 113 106 99 96 91 83 77 74 66 61 55 53 50 46 42 40 39 34 33 31 30 29 28 27 25 25
104 107 110 114 115 119 126 129 129 125 119 112 106 99 94 88 83 76 71 68 60 57 52 48 46 42 38 37 37 31 30 30 28 28 27 25 24 25
110 112 114 117 121 125 128 127 123 116 110 105 99 93 87 81 75 71 66 61 56 52 48 44 42 38 37 35 34 30 28 28 28 26 26 25 24 24
113 116 119 122 125 127 125 120 115 110 103 97 91 85 80 75 70 66 61 56 53 49 44 41 38 35 35 33 31 28 26 27 26 26 25 24 23 23
117 120 122 123 124 121 117 111 106 100 95 90 85 80 75 68 64 60 57 52 49 45 41 39 36 33 33 31 29 26 25 26 25 25 24 23 22 22

GFSNE_250_spd_057.txt.gz
Wind_Speed
63 70 74 78 81 82 82 81 81 83 85 88 88 92 90 89 89 91 95 98 103 106 109 111 112 110 111 112 117 117 118 116 105 95 83 79 75 74
76 78 83 86 81 81 82 84 86 86 83 81 81 87 88 89 94 97 95 101 103 106 111 114 113 115 119 119 119 119 116 112 102 92 79 74 69 69
81 84 83 81 82 83 84 84 81 79 81 84 83 84 89 94 94 95 97 97 102 105 108 110 114 116 116 118 118 118 112 103 94 86 72 70 66 65
83 80 79 80 78 78 78 80 81 82 84 81 85 90 91 92 93 99 102 102 106 102 107 113 114 115 115 118 120 115 109 99 90 80 71 65 62 61
77 75 73 75 75 75 76 77 78 81 84 85 79 79 87 92 96 99 102 102 99 105 111 116 117 118 118 116 116 111 102 92 86 77 70 66 59 58
76 72 66 64 67 70 73 78 80 82 82 77 86 91 94 96 95 96 90 96 100 107 114 119 119 116 116 115 110 104 92 84 77 74 70 65 58 54
56 54 54 56 60 65 70 74 76 80 83 89 92 93 93 91 88 88 92 94 99 110 114 117 119 116 113 108 103 97 89 82 74 68 66 61 55 51
56 59 60 61 62 64 66 65 67 72 77 82 88 92 89 95 89 92 94 98 101 114 117 117 118 112 108 102 95 89 82 76 70 65 62 56 53 50
61 63 63 66 69 70 70 71 73 77 81 82 83 88 87 88 91 92 97 101 109 116 118 113 115 109 102 96 91 86 76 69 65 62 58 54 51 49
65 66 69 71 74 74 75 76 79 81 82 85 89 93 93 92 95 98 102 106 113 117 121 112 113 103 98 93 86 79 71 65 62 57 53 50 48 45
69 71 75 78 76 76 78 79 82 86 90 94 95 96 96 99 98 103 109 114 116 118 122 112 110 99 93 88 81 72 66 62 59 54 49 47 45 43
75 77 79 80 83 83 83 84 87 90 94 98 98 97 101 103 106 113 117 119 118 116 116 109 104 96 89 84 74 65 60 57 56 51 47 45 42 41
81 84 85 87 89 91 90 90 90 91 96 98 96 100 101 105 110 116 121 122 120 119 113 106 99 92 86 76 71 60 56 54 52 47 45 42 40 38
83 89 92 93 95 97 95 96 97 101 102 102 101 102 103 107 112 118 124 125 123 119 110 101 92 85 79 73 65 58 54 52 48 46 42 40 36 35
89 94 97 100 103 103 102 101 105 106 106 105 103 104 107 110 115 119 123 122 119 113 102 94 88 81 74 66 60 54 53 49 46 43 39 38 35 33
96 100 102 103 107 106 104 107 110 108 105 105 105 107 109 113 117 119 120 115 108 104 97 87 80 75 69 63 56 51 49 46 44 41 36 35 32 32
102 102 105 108 111 110 112 115 114 109 108 108 107 109 112 116 119 119 114 106 100 95 92 80 74 69 64 57 53 49 45 43 41 38 35 32 30 30
105 108 111 113 114 118 122 118 111 110 110 109 111 113 115 117 117 116 109 100 94 90 83 74 69 64 59 52 50 45 42 39 39 35 34 30 29 28
111 115 116 117 122 125 120 114 113 113 110 111 114 116 117 116 113 107 101 94 87 81 76 67 65 59 54 47 47 42 39 38 36 33 32 30 28 27
115 118 124 127 126 120 115 114 114 112 111 114 115 116 113 109 103 98 93 87 80 75 69 62 61 55 49 44 44 41 35 37 34 31 30 28 27 27
122 127 127 126 122 117 114 113 112 112 113 113 114 110 106 100 95 90 86 79 74 68 62 59 55 50 44 42 41 37 33 35 32 29 28 26 25 25
132 129 128 123 116 115 114 113 113 113 112 110 107 103 98 92 87 82 77 72 67 64 59 55 50 46 40 39 38 35 33 32 31 28 27 25 24 25
129 127 120 115 115 114 113 112 111 110 107 104 100 96 92 86 78 75 71 66 64 59 54 50 45 42 38 37 35 33 32 31 29 27 26 24 23 23

GFSNE_250_spd_060.txt.gz
Wind_Speed
52 55 60 66 71 74 77 78 78 76 76 76 75 79 81 81 79 78 81 84 82 82 88 95 101 101 103 105 108 111 109 112 116 116 116 110 101 93
59 62 68 73 72 73 81 78 77 74 70 73 71 73 74 78 81 82 83 82 83 93 99 100 103 102 100 100 103 107 112 117 122 121 117 106 92 85
67 67 69 71 78 78 73 69 68 64 59 60 65 69 73 76 82 82 84 86 93 97 100 102 102 104 107 104 106 109 112 117 121 121 115 101 91 87
68 70 78 75 67 61 54 54 58 57 59 61 65 70 73 75 75 79 84 88 92 96 97 100 102 106 106 106 107 110 111 116 119 116 111 101 90 84
75 79 71 55 50 54 58 57 59 60 65 68 67 71 72 77 79 81 84 88 91 94 99 100 101 103 106 109 112 111 113 116 114 111 103 93 85 80
73 63 59 57 61 63 62 61 61 64 68 73 75 75 76 78 79 81 82 85 89 96 100 102 104 105 109 109 108 111 114 115 111 105 96 89 83 74
63 57 59 64 67 66 67 67 66 68 72 72 73 77 79 81 81 84 84 85 91 98 98 101 106 106 111 111 110 113 114 112 106 98 91 85 78 70
63 68 70 70 68 70 71 73 73 71 76 79 81 84 87 85 85 86 87 88 90 97 98 103 106 106 108 108 110 111 108 105 98 91 84 78 71 64
67 68 69 71 73 72 73 75 75 76 81 86 88 90 92 91 92 93 94 93 96 100 101 99 107 105 107 107 108 107 103 98 91 84 78 71 65 60
64 68 71 72 72 75 78 81 79 80 85 89 91 94 95 97 99 99 100 98 99 102 108 106 107 105 104 107 105 103 98 91 86 79 72 66 59 55
70 70 71 72 74 78 79 81 83 86 90 93 98 99 100 104 108 105 106 106 99 103 113 112 110 107 102 106 103 95 90 85 79 73 67 60 55 52
73 74 73 76 78 81 84 86 86 91 95 99 103 104 108 111 114 111 112 111 109 106 116 113 110 107 99 101 98 91 86 80 72 68 62 57 52 49
78 77 79 81 82 83 89 89 91 95 99 103 106 109 112 114 116 116 118 113 113 117 119 115 107 104 103 92 89 86 80 74 68 62 57 52 48 47
85 84 85 87 86 87 90 94 96 99 104 107 109 113 115 117 119 123 117 115 119 120 116 117 108 104 99 91 86 81 74 70 63 57 53 49 46 43
89 89 88 88 89 91 95 100 102 105 108 110 114 118 118 123 125 120 114 115 119 121 117 112 107 100 95 90 85 77 68 63 57 53 49 46 44 41
93 93 90 93 93 96 99 104 106 110 113 116 118 121 126 128 122 114 114 118 118 117 118 109 103 96 92 87 81 72 63 58 54 51 46 43 40 38
94 92 93 95 98 100 104 108 110 115 118 120 125 131 130 124 118 116 119 120 118 111 106 105 98 91 85 78 75 65 61 55 52 47 43 40 38 36
94 96 96 98 102 105 109 113 117 120 123 129 132 133 128 120 117 120 121 119 113 106 100 96 90 84 76 72 67 62 57 51 48 45 40 38 35 34
99 102 100 103 107 108 115 118 120 126 131 134 135 130 121 117 120 121 118 113 106 100 96 90 84 78 70 68 63 57 53 47 44 42 37 36 33 32
104 103 105 110 113 118 120 123 128 133 135 132 129 121 118 120 120 117 111 103 97 93 88 81 75 71 66 62 57 53 49 43 42 39 35 33 32 31
106 108 112 116 119 121 126 130 132 133 131 126 120 119 119 117 114 106 101 95 89 84 81 73 67 64 61 57 52 49 43 40 40 36 32 31 30 30
113 115 119 122 125 128 131 131 131 128 123 119 120 120 117 110 103 97 92 86 83 78 73 68 62 59 56 53 48 45 40 37 37 33 30 29 28 29
118 121 125 127 129 131 128 127 123 119 118 119 117 113 106 100 93 87 81 77 74 71 67 62 57 55 52 48 44 41 38 35 34 31 28 28 26 28

GFSNE_250_spd_063.txt.gz
Wind_Speed
59 53 51 50 52 58 59 60 62 59 64 59 56 59 62 62 62 66 70 73 74 76 79 81 84 86 88 89 92 94 97 101 105 106 106 111 116 121
50 54 49 50 57 60 59 60 55 54 54 56 63 61 63 65 63 66 67 70 75 79 82 84 87 90 92 94 94 96 100 102 105 107 111 114 119 121
56 56 55 57 55 56 60 55 58 64 59 61 64 64 65 66 67 69 73 74 78 81 84 88 90 90 92 94 97 99 101 103 104 107 110 116 120 124
51 51 58 54 56 64 64 63 63 60 67 69 67 68 69 69 70 73 77 79 80 83 85 86 88 93 97 100 100 102 102 101 103 107 112 117 121 125
48 49 55 63 64 63 62 63 65 68 70 67 69 70 72 75 78 77 80 82 86 87 90 92 94 98 101 99 96 96 101 102 105 112 116 121 124 125
54 55 59 58 59 63 64 67 68 69 71 71 72 75 78 79 80 77 81 83 88 92 94 96 98 102 104 102 100 100 102 105 111 116 120 123 123 119
45 50 55 59 62 64 65 66 67 68 72 75 75 76 77 77 78 81 84 86 90 96 97 101 103 106 108 106 105 105 104 109 114 120 121 122 119 109
50 54 54 57 59 62 66 67 68 69 70 74 75 77 77 79 81 84 86 89 93 97 101 104 108 109 112 111 109 106 106 112 117 121 121 118 110 98
59 62 63 63 65 67 69 67 69 71 73 76 79 79 84 84 85 87 90 94 98 103 105 107 112 113 116 114 111 106 108 114 117 120 117 111 98 89
61 62 64 67 70 71 72 73 75 75 76 79 82 85 87 88 91 93 94 98 103 107 114 113 116 119 120 117 112 111 112 117 118 116 111 100 89 80
67 68 73 75 78 80 80 81 80 80 83 84 86 87 88 91 94 96 98 102 106 111 119 119 120 121 118 112 112 115 117 118 116 110 102 91 81 73
72 73 75 77 81 84 83 83 84 85 88 90 90 91 92 96 99 100 105 107 110 115 122 122 124 125 115 111 113 118 119 116 111 103 93 83 73 67
78 81 82 83 82 86 87 88 89 89 93 94 94 94 96 100 103 105 110 110 115 121 127 127 127 125 118 112 116 118 115 112 104 94 84 76 68 62
85 88 87 85 86 87 89 92 92 92 96 97 97 99 101 104 107 111 113 117 121 125 130 131 126 121 116 118 119 118 111 103 95 86 78 69 62 59
89 91 92 93 92 93 96 95 94 97 100 101 101 104 105 108 111 115 118 122 124 131 133 132 125 119 119 119 117 112 101 93 87 79 72 65 59 55
95 96 96 100 99 101 100 98 99 101 103 105 107 107 108 111 115 118 121 125 128 132 133 130 122 119 118 117 110 100 93 89 81 73 67 60 55 50
99 100 102 102 104 104 102 100 102 104 107 109 108 109 112 115 119 122 127 130 131 131 129 124 123 118 116 110 103 95 88 84 72 66 62 56 52 45
101 102 103 106 105 104 102 104 107 109 111 111 110 114 118 122 124 128 133 133 131 126 122 120 118 116 108 102 94 89 81 75 66 60 57 51 49 41
103 107 108 109 108 107 107 109 111 113 112 114 118 121 124 127 130 133 133 130 124 121 119 116 110 104 99 93 87 81 74 67 60 56 53 47 45 38
107 111 111 111 110 111 112 113 114 114 118 121 123 126 128 132 133 130 126 121 118 116 114 107 99 93 88 84 78 73 68 61 56 53 49 43 42 37
113 113 113 113 113 114 115 115 117 120 123 126 128 130 131 130 127 123 119 114 111 105 102 99 93 86 80 74 70 66 61 55 51 50 44 40 39 35
115 115 115 116 116 115 117 120 122 125 127 128 130 129 125 123 118 114 110 105 101 96 93 91 85 78 72 68 63 59 55 50 47 45 40 37 36 34
116 116 116 117 117 119 120 122 124 126 127 126 123 121 116 111 107 102 99 95 92 87 83 81 75 70 66 62 57 54 49 46 43 41 36 34 33 33

GFSNE_250_spd_069.txt.gz
Wind_Speed
53 50 52 51 53 55 57 57 61 62 54 50 53 53 51 51 55 57 58 59 60 62 65 67 69 72 75 78 78 81 85 87 87 89 91 91 93 95
51 50 52 52 56 59 60 56 60 58 55 44 53 54 57 57 58 60 61 63 65 67 69 70 71 74 77 80 83 85 88 90 91 93 94 94 96 98
54 54 56 62 64 61 57 59 58 51 45 49 61 63 62 64 66 68 68 67 70 74 79 80 80 81 83 86 86 89 91 91 91 93 95 98 100 103
57 60 63 63 58 57 55 49 47 43 44 49 54 61 65 66 68 70 72 77 77 79 82 88 89 89 91 93 92 95 96 95 97 96 99 102 103 105
64 62 54 54 51 50 48 46 42 45 50 54 58 65 69 71 73 72 75 81 81 82 84 87 90 91 96 96 99 101 103 104 103 104 105 107 108 108
47 45 43 42 41 43 45 47 49 52 56 58 60 64 68 68 74 75 75 81 83 87 89 91 92 97 97 98 102 104 106 107 106 107 109 111 111 112
34 38 38 40 42 44 46 48 53 57 61 61 63 67 70 77 79 80 82 85 88 91 94 97 100 102 104 103 106 108 110 110 108 110 111 112 113 114
41 42 46 49 52 56 57 56 61 64 69 67 75 75 78 83 83 86 90 91 94 98 98 100 104 104 104 106 108 109 108 109 111 111 113 114 117 119
48 52 53 56 60 60 61 62 67 69 73 76 78 81 87 91 91 93 94 93 94 98 99 102 106 104 106 107 109 110 111 113 114 116 118 119 120 120
55 58 61 63 66 67 70 73 74 77 77 80 81 87 92 98 100 101 102 101 102 105 107 106 106 106 108 110 114 113 115 117 119 120 121 120 122 121
60 63 63 64 65 69 73 76 80 84 84 85 89 91 94 98 106 106 106 107 108 109 111 108 108 109 111 114 118 119 118 121 122 120 122 123 124 122
68 69 69 70 70 74 76 79 82 84 87 91 97 98 99 103 105 108 109 108 110 111 113 112 114 115 112 115 119 121 123 124 121 121 121 123 123 121
73 74 75 77 80 83 82 87 89 91 93 97 97 100 103 103 106 107 109 111 113 115 118 118 117 119 120 117 121 125 125 125 126 126 124 122 120 116
79 79 82 86 90 91 92 95 99 96 99 101 100 100 102 105 107 110 113 115 119 119 121 123 123 125 124 123 124 126 125 126 128 126 125 121 116 112
86 89 92 95 97 97 99 100 102 104 100 106 107 108 108 109 110 114 117 120 122 125 127 128 129 130 129 126 124 124 125 127 129 127 125 119 114 108
95 95 96 98 101 104 106 106 109 101 102 105 111 113 115 115 118 121 125 128 129 130 129 132 133 131 127 126 124 125 126 124 126 124 121 116 109 99
102 106 110 108 108 107 109 107 107 111 112 113 116 117 119 121 123 126 129 128 129 130 132 131 126 124 123 124 124 124 122 122 120 117 114 105 100 93
112 115 113 114 114 117 117 114 112 114 118 115 114 118 122 127 131 132 132 131 129 126 124 123 121 122 122 123 123 122 121 116 114 109 103 95 91 85
110 112 114 118 115 111 113 117 115 113 116 119 122 124 126 129 129 128 128 125 118 120 120 121 121 120 118 117 119 121 114 110 104 99 94 87 81 76
116 116 114 113 113 115 116 117 120 122 122 124 126 130 129 127 127 127 120 118 119 118 118 117 118 115 115 110 110 114 109 99 95 92 88 79 69 68
108 114 119 121 117 119 120 122 125 126 126 131 133 131 129 125 122 119 115 116 116 114 113 112 114 111 109 105 101 102 98 88 86 80 76 72 65 61
116 120 123 123 124 126 128 132 134 132 133 131 127 126 122 118 116 117 115 113 113 109 109 108 107 105 99 97 93 93 89 80 77 71 69 66 61 56
117 118 120 124 129 131 132 133 134 133 131 129 126 118 117 116 113 112 111 107 107 106 104 102 98 94 90 86 85 81 76 72 69 65 62 60 56 50

GFSNE_250_spd_072.txt.gz
Wind_Speed
49 42 39 45 54 58 61 56 53 53 57 62 62 65 64 62 63 57 49 45 50 53 56 60 61 66 69 69 72 76 80 83 84 86 91 90 90 92
46 50 56 58 59 58 56 57 61 59 60 63 63 64 65 58 45 42 44 46 50 54 59 62 67 67 70 75 80 83 84 87 90 93 95 91 91 93
48 48 52 57 58 58 60 61 63 65 66 62 57 59 55 54 50 51 54 55 55 58 62 65 69 72 76 81 84 87 89 92 92 94 94 93 94 97
55 58 58 62 65 63 64 64 62 62 54 50 46 47 48 50 52 56 58 62 63 63 65 72 74 79 81 84 88 90 91 92 93 96 96 96 98 99
57 57 59 62 62 63 58 54 50 46 41 45 49 49 52 51 56 58 62 67 70 71 73 76 79 84 88 89 92 93 93 95 96 97 97 98 100 102
52 43 40 40 38 38 38 40 44 45 49 51 57 58 61 63 64 66 66 70 79 81 82 85 85 87 93 95 97 99 96 96 98 100 103 105 106 107
33 35 35 37 39 39 42 46 48 51 55 59 62 62 67 67 74 74 77 80 83 88 90 90 87 88 96 99 101 103 100 101 104 106 109 110 111 115
36 40 42 44 47 49 53 55 57 57 59 61 63 61 67 71 75 81 83 86 88 89 95 100 104 105 101 103 106 104 103 106 110 113 115 116 118 121
45 48 46 48 53 56 57 59 60 63 64 67 67 68 70 73 78 83 87 88 92 94 100 105 107 103 105 110 109 109 108 112 116 119 121 122 126 126
53 53 55 57 62 63 65 66 69 70 69 73 75 75 77 79 82 85 91 94 96 98 105 108 108 105 109 110 110 112 114 117 121 126 129 129 130 129
59 59 59 61 63 66 69 70 73 74 75 79 82 81 83 87 89 92 96 98 100 101 105 108 104 106 108 109 112 116 118 122 125 128 129 132 133 129
67 66 68 69 68 71 73 73 77 79 83 84 84 86 92 96 99 98 100 101 106 110 107 107 105 109 105 109 114 121 125 128 132 135 138 136 131 125
75 75 75 77 78 77 78 82 86 89 89 90 94 99 100 101 101 105 108 109 110 109 108 107 110 113 114 113 119 126 132 135 137 137 133 126 121 119
82 82 82 83 82 83 85 88 92 95 99 101 102 101 101 107 111 112 116 112 107 106 111 115 115 116 121 122 124 128 127 123 127 127 123 122 121 120
84 86 87 90 90 91 93 96 99 101 103 106 110 112 111 113 116 114 110 104 104 108 115 119 123 127 127 128 125 123 132 123 127 123 123 119 119 117
85 89 92 95 99 101 104 105 108 112 114 117 120 122 115 105 110 110 107 107 110 116 121 122 123 121 125 127 128 129 126 127 125 123 120 118 117 117
93 96 100 105 108 111 112 115 119 121 116 109 106 107 111 114 111 117 117 117 119 123 125 128 131 134 133 131 131 129 124 125 122 118 116 113 114 111
105 107 111 113 115 118 119 112 113 111 107 108 109 114 116 119 122 125 124 127 123 123 131 134 137 137 134 134 130 125 121 119 116 113 111 108 108 105
114 115 120 122 117 121 120 111 107 107 111 116 118 116 123 123 126 130 131 129 132 133 136 137 136 132 131 121 123 121 113 111 108 110 109 103 98 93
122 125 123 113 106 105 106 114 116 116 120 119 120 121 128 127 130 132 134 135 138 137 133 134 130 123 116 110 107 113 112 109 105 103 100 93 90 83
115 108 104 102 106 111 114 116 117 118 120 122 126 127 133 138 139 138 135 132 131 128 120 122 116 112 108 106 104 105 106 102 94 92 91 85 80 75
108 108 110 110 112 116 118 121 125 126 128 131 136 137 142 142 137 133 129 119 117 115 112 111 109 109 107 102 99 96 92 90 83 85 80 75 71 67
112 113 116 118 118 121 125 128 130 132 134 137 139 137 134 131 126 119 114 112 109 109 106 107 106 101 98 93 90 88 82 79 76 75 72 68 65 62

GFSNE_250_spd_075.txt.gz
Wind_Speed
71 70 71 68 58 51 44 44 46 49 53 59 60 57 56 57 60 59 56 48 44 47 46 50 52 54 57 59 62 61 62 70 69 76 83 85 86 87
74 65 54 50 51 52 53 53 50 51 57 63 59 58 59 62 57 54 48 44 44 48 52 52 55 58 60 63 66 69 73 76 79 85 88 91 92 91
52 52 55 53 51 51 53 53 57 58 55 60 59 61 60 53 45 42 43 47 50 54 56 59 63 64 67 70 72 77 79 80 83 88 90 95 93 95
48 49 51 52 54 55 54 58 59 62 62 63 55 50 44 43 43 45 51 57 62 66 67 68 69 71 77 79 83 86 85 83 81 88 94 99 99 95
57 58 58 58 60 61 63 63 62 59 47 41 39 41 42 49 51 54 57 62 67 68 68 69 74 75 78 83 87 90 95 89 92 95 99 97 99 99
46 50 51 51 50 50 46 46 45 44 43 41 44 47 46 51 56 58 61 62 67 71 69 70 73 80 85 88 96 101 99 98 99 104 107 107 105 102
31 34 36 38 39 41 43 47 47 46 47 51 53 55 55 57 60 63 64 68 72 74 73 77 81 84 85 92 97 100 103 108 104 109 112 111 110 107
42 43 43 44 47 49 51 52 52 54 55 59 61 61 61 63 69 72 71 74 78 79 81 81 85 90 91 94 97 102 106 105 109 113 110 106 104 109
50 52 51 53 55 57 60 60 59 60 61 65 67 68 68 69 70 74 80 80 83 88 85 90 92 96 98 100 100 103 107 112 109 107 107 106 111 114
56 60 60 62 63 66 68 68 70 71 70 71 73 74 74 75 76 80 83 86 88 88 93 98 100 103 105 103 104 111 111 110 106 107 109 109 116 117
60 63 67 70 71 73 75 76 78 78 80 82 83 81 81 82 83 84 89 93 95 97 99 103 106 107 106 111 112 110 112 103 105 106 108 116 119 126
68 70 76 73 74 77 80 82 84 86 86 85 86 87 88 86 88 90 92 96 101 104 106 108 111 114 114 105 105 108 104 105 109 110 116 124 125 127
75 77 80 79 79 80 82 86 88 87 85 86 87 88 90 92 94 96 99 102 106 110 112 115 116 111 104 102 102 105 108 112 118 118 128 125 125 130
88 83 75 80 83 83 83 89 83 89 92 94 95 95 96 99 102 106 108 112 116 120 121 112 109 108 108 105 106 108 111 119 123 128 124 125 135 139
92 81 80 77 80 87 82 75 70 90 97 103 101 108 111 113 116 119 122 122 123 112 108 110 108 111 112 114 115 115 116 120 127 126 133 138 137 139
78 85 80 74 65 85 93 82 87 102 107 110 113 115 119 121 123 124 127 124 118 117 112 115 115 120 115 117 117 117 125 122 128 137 138 140 139 138
96 86 80 75 79 92 105 107 111 113 117 119 119 122 126 127 130 130 121 116 114 118 119 118 124 123 123 124 123 127 131 132 137 140 138 132 132 127
84 86 95 92 92 107 103 106 110 120 125 126 128 130 129 136 133 125 118 118 118 119 122 124 124 127 130 127 130 134 133 136 135 132 127 119 117 117
101 109 103 104 105 102 108 122 126 128 129 130 133 136 135 125 119 116 118 121 124 125 126 126 130 129 130 134 134 140 130 126 123 118 113 113 111 110
116 118 113 110 113 118 123 128 131 132 136 135 132 128 125 120 119 118 120 123 123 127 130 131 132 131 129 123 124 124 125 114 112 109 108 105 100 96
119 121 130 125 122 123 124 125 127 128 128 126 123 122 123 123 121 119 122 124 126 129 132 134 130 123 121 117 114 112 115 111 105 100 96 93 87 87
115 115 118 118 118 118 118 119 123 124 125 124 124 125 123 123 123 124 127 130 130 129 130 124 119 117 111 108 108 104 105 99 90 85 85 82 80 78
107 110 112 114 116 116 119 123 123 123 124 124 124 125 124 124 124 123 121 122 124 123 119 117 112 108 104 101 98 94 88 85 83 79 75 73 72 70

GFSNE_250_spd_078.txt.gz
Wind_Speed
67 66 67 69 72 73 75 77 78 78 83 74 66 61 56 53 56 59 63 63 61 56 49 44 42 41 45 49 53 57 61 63 64 65 67 68 70 73
72 73 73 76 80 81 81 80 74 63 59 60 58 56 55 61 65 63 62 59 52 46 45 47 50 53 56 58 62 63 64 65 67 70 71 75 76 80
74 74 73 70 62 62 60 57 57 54 48 55 55 57 59 60 59 56 51 47 43 48 51 53 57 59 63 65 66 68 71 73 73 76 79 83 83 88
57 55 56 56 56 56 53 54 55 55 53 53 61 59 55 51 49 45 45 45 47 52 55 59 61 65 68 68 69 72 75 77 77 81 86 92 95 99
52 54 57 57 58 59 60 63 61 61 58 56 45 45 43 43 46 48 50 52 54 57 62 66 66 69 73 76 76 78 79 79 85 90 93 98 101 103
38 41 42 41 42 42 41 41 41 40 40 38 40 44 46 48 56 60 59 63 64 66 67 70 72 76 78 81 80 82 84 87 90 93 98 102 103 104
35 36 36 38 43 44 43 44 45 45 47 49 50 51 54 55 59 65 67 71 70 72 74 75 79 81 84 83 85 86 90 94 96 100 103 106 108 107
47 47 49 50 53 54 54 52 54 55 58 62 63 63 64 66 68 73 75 77 78 78 80 82 82 84 86 88 89 92 94 98 101 105 109 110 110 109
53 54 53 55 58 59 59 59 60 60 62 67 70 72 72 75 76 75 80 81 83 83 81 83 84 84 87 91 93 97 100 104 108 111 117 114 114 112
53 55 59 61 62 62 62 61 64 63 71 71 71 72 76 77 81 81 81 83 82 82 82 85 87 90 92 94 97 100 106 110 113 118 118 116 110 107
56 62 56 58 63 67 69 69 70 72 77 77 77 78 79 80 83 85 85 89 87 84 83 88 93 94 95 100 102 107 111 116 121 121 114 111 110 110
68 66 63 64 69 72 76 78 77 81 83 82 77 81 85 88 90 95 95 82 90 87 88 91 97 102 107 109 114 116 121 120 125 114 111 109 110 111
68 69 72 72 76 78 81 84 89 91 92 81 77 80 85 86 86 76 72 92 99 93 97 104 111 112 116 119 121 126 124 132 130 116 115 112 112 113
76 78 77 73 80 89 95 90 87 93 85 78 80 84 84 87 82 87 94 105 111 109 109 114 122 119 124 126 131 133 135 141 126 117 117 116 118 120
76 81 76 85 98 90 91 84 94 90 92 87 93 85 93 95 86 95 106 109 114 120 125 124 124 129 133 135 138 139 141 133 121 119 117 117 116 120
92 96 101 103 105 105 104 101 103 106 101 101 106 105 90 93 95 107 115 118 122 129 125 129 129 135 140 143 142 142 131 120 117 116 115 116 118 123
105 108 108 105 101 101 101 102 104 106 102 104 109 106 101 95 107 118 123 127 129 131 133 136 135 140 148 149 142 128 121 114 115 117 118 119 124 128
105 106 105 107 106 108 109 108 108 103 105 100 106 104 108 106 113 117 122 124 129 133 136 138 141 148 146 134 123 118 114 116 117 115 113 111 115 126
111 111 110 111 111 113 115 115 115 114 112 109 109 114 114 120 134 132 127 127 126 131 136 142 143 139 129 125 120 118 111 106 108 108 113 112 107 119
117 116 114 116 117 119 119 120 122 121 119 120 124 127 129 134 136 136 134 134 134 135 137 132 125 117 112 110 112 115 115 107 104 103 107 106 100 99
109 109 109 108 108 108 110 113 114 115 115 118 120 123 126 127 132 131 132 127 125 124 119 112 109 109 108 105 105 102 105 103 100 99 100 100 96 93
105 105 105 105 107 107 107 109 110 112 113 114 117 122 124 125 126 125 119 114 110 109 108 109 108 107 106 100 99 98 100 100 95 90 85 84 83 82
97 96 95 97 100 101 103 105 107 109 111 113 115 118 120 120 116 108 105 107 107 108 108 108 106 104 100 98 93 92 92 89 87 86 80 77 76 75

GFSNE_250_spd_084.txt.gz
Wind_Speed
55 51 54 57 56 54 53 55 58 58 63 68 70 74 74 77 79 77 63 56 54 53 54 56 56 56 57 58 56 50 48 46 47 50 55 57 58 59
55 56 57 57 57 60 61 63 65 67 68 72 75 79 70 64 57 56 55 55 55 57 59 57 56 56 47 47 49 50 51 53 56 58 60 62 64 65
57 60 62 64 64 66 69 70 70 71 66 62 58 56 56 56 59 59 58 58 58 57 55 51 44 44 47 49 53 57 62 66 67 66 68 69 69 72
63 63 66 67 66 63 62 52 44 44 40 40 50 53 50 51 44 42 40 42 41 44 45 45 49 51 54 57 59 62 67 69 72 75 75 76 76 76
39 34 34 31 32 32 33 35 35 37 35 33 36 39 42 44 46 46 48 48 48 50 51 52 53 54 54 55 60 64 66 72 73 75 78 81 80 80
29 32 35 36 38 39 40 40 41 41 41 41 41 47 50 51 50 54 54 55 56 58 57 57 58 60 60 61 64 65 70 75 78 77 79 84 85 84
35 36 37 40 40 40 40 42 43 44 44 45 46 48 50 54 57 60 58 60 60 62 63 63 66 68 70 74 77 80 77 71 78 81 84 86 89 90
42 43 45 45 46 45 46 47 49 49 48 47 47 50 54 58 60 61 63 62 62 69 66 69 70 71 77 80 84 83 79 77 80 82 87 96 88 91
44 46 47 50 54 55 56 55 58 58 52 51 54 57 60 64 67 69 69 71 71 69 72 75 76 79 83 88 90 90 85 81 86 90 89 86 90 97
52 53 52 55 56 59 61 62 66 65 63 62 64 69 71 67 74 76 75 77 76 73 75 80 77 80 87 88 91 85 86 87 89 92 86 93 103 111
55 58 61 60 61 62 61 61 67 69 67 70 74 71 69 70 75 74 76 83 79 76 78 82 84 93 97 88 95 92 97 98 99 96 94 95 99 104
62 63 63 66 68 63 63 67 69 69 73 79 80 79 79 79 73 76 80 79 84 87 89 90 95 97 94 94 99 105 106 105 105 102 109 105 103 105
68 68 69 72 75 71 69 73 77 77 78 83 85 90 87 83 91 96 96 89 90 95 96 96 98 101 106 104 109 111 112 112 115 113 117 117 118 118
73 76 78 78 77 77 79 82 83 84 85 87 86 90 93 96 95 94 94 96 100 104 103 106 110 109 112 115 117 115 116 118 121 121 124 126 125 126
81 81 80 80 83 85 87 90 91 91 93 96 97 97 99 102 103 102 104 107 111 113 112 114 117 116 120 120 121 119 120 123 123 126 130 130 130 131
87 87 88 89 92 95 95 94 93 97 101 103 103 105 108 109 110 113 116 118 119 121 121 119 123 124 123 123 124 125 127 125 127 132 137 138 138 139
94 96 97 100 104 99 99 100 100 104 108 111 112 114 117 119 121 123 125 126 126 125 126 125 125 127 127 124 127 128 128 131 136 141 139 138 137 137
100 101 106 107 108 110 109 108 109 111 114 117 120 124 126 127 131 134 134 132 130 126 123 123 125 125 127 129 130 132 136 138 138 135 133 133 132 133
105 113 112 113 111 112 117 119 120 122 122 123 127 128 128 125 126 124 123 123 126 127 127 129 131 131 131 133 130 128 130 131 129 128 128 127 126 127
116 113 118 119 122 120 118 119 121 121 121 122 123 123 123 123 123 123 122 123 121 122 124 124 124 125 126 125 125 121 117 119 118 115 112 111 110 110
118 119 122 119 114 118 120 119 120 120 118 116 113 112 112 113 112 111 111 111 113 114 115 116 116 115 115 115 114 113 110 107 106 103 100 98 101 103
120 121 117 117 117 118 116 112 111 108 107 104 101 100 99 100 101 101 101 101 100 100 101 103 105 107 108 108 107 105 105 104 100 97 89 88 89 90
115 117 117 115 113 109 106 104 100 99 100 98 96 96 96 96 96 96 96 95 95 95 96 96 96 96 97 97 97 96 94 93 92 93 89 85 82 80

GFSNE_250_spd_087.txt.gz
Wind_Speed
56 55 53 52 55 56 58 56 54 59 61 58 58 60 63 65 67 70 73 74 74 59 52 54 54 53 53 55 55 50 42 38 39 41 44 46 49 54
56 56 55 57 58 58 57 58 62 61 60 64 66 68 71 74 75 73 64 57 53 53 55 54 53 50 45 42 38 39 41 43 45 48 49 51 53 57
53 52 50 50 54 59 59 62 64 68 69 65 62 57 55 54 50 48 46 45 43 41 42 42 42 42 43 43 44 46 48 49 52 51 50 54 57 60
49 50 53 56 60 65 69 68 59 49 41 35 39 38 37 40 39 38 38 40 42 45 47 48 49 51 52 52 51 53 52 50 50 54 53 61 61 66
60 63 66 63 63 57 47 41 37 36 37 37 40 42 43 45 47 47 50 50 48 48 50 53 54 55 57 57 57 58 57 60 61 63 63 66 68 70
44 42 41 38 38 36 34 37 39 38 38 38 39 42 45 49 48 50 50 50 52 53 54 56 57 57 59 62 63 64 65 67 65 65 65 68 74 76
36 37 39 39 39 41 40 42 42 43 44 45 44 44 47 52 54 55 52 56 59 63 64 65 67 67 66 66 70 72 70 72 71 73 76 77 79 82
41 43 43 44 46 48 48 49 50 50 51 52 52 54 56 57 60 62 61 61 60 69 70 73 75 78 78 76 77 79 76 76 78 81 78 82 88 90
46 47 47 49 51 51 53 54 56 56 54 57 59 62 62 64 65 65 68 71 71 73 75 76 77 81 84 83 81 85 86 88 86 83 87 88 89 90
50 52 53 55 56 57 60 61 63 62 64 65 64 64 66 64 66 68 73 77 79 78 80 82 81 82 82 82 85 85 87 85 88 91 94 93 96 95
56 58 60 62 64 65 66 67 69 69 69 70 73 74 71 73 73 75 76 78 77 81 85 84 89 88 83 88 88 87 88 91 92 95 96 98 99 99
65 65 66 67 68 69 71 72 73 74 74 76 79 79 79 82 83 84 85 86 87 89 90 92 93 94 97 96 98 98 98 96 100 102 103 102 104 108
70 71 71 73 73 76 76 78 79 79 80 82 84 83 84 85 90 93 96 96 96 96 100 102 102 102 104 107 106 107 106 107 110 113 113 112 117 112
74 76 75 76 76 76 78 79 83 85 86 89 88 87 89 91 95 97 101 103 103 103 105 108 110 114 114 116 115 116 118 118 119 121 122 122 124 122
76 75 75 77 78 80 83 85 88 91 94 96 96 98 101 101 102 106 105 107 108 110 111 112 116 120 121 122 122 123 125 127 131 129 131 134 132 130
80 82 84 85 87 90 92 94 96 97 100 99 102 103 107 109 113 115 115 113 112 115 119 120 122 124 126 128 130 132 135 135 136 139 139 136 133 131
88 91 94 98 98 100 102 101 104 105 105 107 111 111 113 118 120 120 120 121 125 128 127 127 130 133 135 135 136 138 139 139 137 134 131 129 126 128
95 95 97 100 102 104 103 107 111 113 115 116 117 119 123 125 124 124 127 128 125 124 127 128 129 129 129 128 129 129 128 127 126 125 124 122 122 121
102 104 106 108 107 107 107 110 115 119 120 123 126 125 123 127 125 126 122 122 122 122 122 122 121 118 114 114 115 115 115 113 113 112 109 109 111 111
108 109 111 111 111 113 116 121 124 124 128 127 126 124 126 121 120 119 119 118 118 116 113 112 109 109 109 109 107 103 102 102 102 102 101 101 101 99
114 115 114 117 123 127 127 123 121 121 120 118 118 118 119 117 115 114 112 111 110 108 106 104 103 101 100 101 101 102 98 96 94 94 92 93 92 92
119 121 124 126 128 121 118 117 116 115 115 114 114 115 116 114 112 110 107 105 103 101 98 97 97 97 97 97 97 96 96 93 89 86 84 84 82 85
127 127 121 119 117 116 115 114 113 113 113 114 114 113 112 109 103 101 99 97 95 93 91 90 90 89 88 88 87 86 86 86 88 87 82 81 80 78

GFSNE_250_spd_093.txt.gz
Wind_Speed
48 45 45 44 44 50 51 48 49 52 50 55 56 56 57 58 60 60 64 64 65 65 67 71 75 73 72 68 64 62 60 52 48 45 44 45 46 45
47 45 44 45 47 49 52 55 58 60 60 62 64 63 61 60 61 59 60 63 66 73 76 73 65 57 54 52 50 50 46 47 50 51 53 53 51 52
51 53 54 57 59 63 63 63 66 69 66 70 65 66 61 59 60 64 69 75 74 64 55 54 54 55 55 54 52 52 55 56 57 56 57 54 53 52
58 58 60 63 66 67 67 69 71 67 65 64 59 60 61 66 69 73 76 63 54 54 57 60 59 58 56 53 53 55 56 58 60 61 60 61 60 58
58 67 70 69 70 68 66 67 69 67 60 58 65 67 71 75 78 60 54 56 57 59 59 58 59 59 59 60 60 62 61 62 63 63 66 66 67 69
60 61 63 65 67 71 71 65 63 64 66 68 72 71 62 58 55 56 57 58 59 60 62 63 64 65 66 65 63 64 64 65 66 67 65 66 68 70
63 65 68 70 72 72 71 71 70 72 74 69 54 51 55 57 59 61 62 64 66 66 68 70 70 71 71 71 73 74 74 74 72 70 71 74 75 75
74 77 79 76 74 79 76 74 71 58 53 52 54 56 58 62 65 66 67 68 70 71 72 76 77 77 77 77 77 77 77 76 80 81 81 81 81 84
79 79 75 68 63 60 59 60 60 59 56 56 58 60 63 67 69 72 74 75 76 77 79 79 80 82 82 82 82 84 84 85 86 88 89 87 87 89
59 58 57 58 59 58 57 56 56 57 59 63 64 66 69 70 73 76 78 80 82 83 82 81 83 84 83 84 84 85 88 90 92 93 95 95 98 100
56 58 60 61 61 60 59 62 65 66 68 70 71 72 74 77 78 78 81 82 83 85 86 86 85 86 87 89 90 91 93 96 98 102 104 106 107 108
61 61 63 65 66 69 69 68 68 68 70 73 77 80 80 79 80 84 85 85 86 86 87 89 91 93 95 98 99 100 102 103 106 107 107 111 114 115
67 67 66 67 67 69 72 71 73 75 77 79 81 82 83 83 86 85 86 89 91 92 95 98 101 102 104 105 106 108 109 111 113 112 113 116 119 121
70 69 70 72 74 75 77 79 81 83 85 86 88 89 89 88 89 89 91 93 96 99 102 103 105 108 109 109 109 112 115 117 118 117 118 121 126 130
74 75 77 80 82 84 84 85 86 88 92 91 90 92 94 93 93 95 98 102 105 106 108 111 112 112 113 116 116 116 116 119 120 124 128 134 137 137
78 81 83 84 86 88 89 90 92 94 94 96 98 99 100 100 104 105 106 109 113 116 117 117 119 119 117 117 118 120 123 128 131 131 133 133 131 127
86 87 89 90 92 92 94 96 99 100 100 102 105 107 106 109 110 109 111 115 119 121 122 122 124 124 125 123 127 131 132 132 132 129 126 125 126 122
93 95 97 99 100 101 105 107 106 107 108 111 115 114 112 114 115 118 120 125 129 128 127 126 129 128 130 133 132 131 129 127 124 122 120 120 121 119
101 101 104 107 109 109 108 110 113 114 113 118 116 117 119 119 124 127 130 136 138 133 128 129 130 132 129 127 127 125 123 122 121 119 117 114 110 106
106 107 107 110 112 114 115 117 120 120 123 124 123 124 127 128 131 137 136 133 131 136 134 131 130 126 128 123 121 119 116 116 113 111 107 106 105 102
120 119 118 118 120 124 127 124 123 127 131 132 132 131 134 137 137 138 137 135 133 131 128 125 124 121 120 117 114 113 110 105 103 102 102 102 100 97
128 128 127 129 133 133 130 131 133 134 135 136 137 140 141 146 140 138 135 133 127 124 122 118 117 115 112 109 107 104 103 101 98 96 93 93 89 88
134 136 136 138 138 136 137 140 140 140 143 145 145 145 144 138 136 130 128 122 122 118 117 114 110 108 105 102 101 98 95 94 92 89 85 84 83 83

GFSNE_250_spd_096.txt.gz
Wind_Speed
48 47 47 53 52 53 48 42 43 45 45 42 50 49 49 53 58 62 61 63 60 57 58 57 57 63 67 71 74 68 60 57 55 56 55 54 53 53
48 52 46 46 49 52 50 50 45 44 44 45 49 54 57 63 63 65 65 61 56 57 59 61 66 70 74 74 60 58 59 58 58 58 56 56 56 55
44 50 48 49 54 51 50 47 50 49 54 57 59 62 67 68 69 69 64 60 60 63 67 68 72 71 62 55 58 61 59 58 58 60 61 60 58 58
39 42 47 53 54 50 50 53 55 55 58 63 69 68 74 76 73 62 62 65 67 71 74 74 58 54 57 57 56 59 61 62 61 63 63 62 62 64
41 47 48 52 53 55 57 57 59 61 62 70 76 75 75 63 63 67 68 71 74 64 57 54 58 61 60 62 63 64 64 64 66 68 68 68 70 68
50 51 53 59 63 63 65 66 66 69 71 76 75 74 72 69 71 73 73 61 56 57 60 61 61 63 63 66 67 68 69 71 72 73 74 74 74 73
53 52 54 57 60 64 67 69 71 73 72 74 79 77 75 74 69 60 55 58 60 63 64 64 66 67 67 69 72 73 75 76 76 76 77 78 78 79
54 55 56 57 59 61 64 65 69 76 77 68 68 65 60 57 60 63 59 61 63 66 69 70 71 73 75 77 76 76 76 78 79 80 79 80 81 83
58 60 61 65 67 71 74 76 76 77 79 77 71 62 65 66 60 60 63 67 69 71 73 75 78 79 78 77 79 80 79 78 79 80 83 86 88 91
65 67 70 72 75 76 81 81 74 71 65 65 63 62 62 63 66 69 71 75 76 76 80 81 81 81 81 83 84 84 85 87 87 89 92 97 97 98
64 63 68 74 78 78 72 65 62 63 65 67 67 68 70 72 74 76 76 77 78 82 84 85 85 88 90 88 88 88 90 93 95 97 101 103 105 107
64 67 71 71 69 68 68 67 67 67 69 71 74 75 77 76 77 78 80 82 83 86 88 89 90 90 92 93 94 96 97 101 104 103 106 111 116 118
58 60 62 65 69 69 72 70 74 78 77 78 78 79 79 81 82 85 87 87 89 91 92 94 96 97 99 99 102 104 111 107 107 113 116 120 122 120
66 68 69 70 74 76 78 80 81 82 81 82 82 83 85 89 89 90 91 92 95 97 99 100 101 105 108 110 112 112 110 114 118 120 123 125 126 124
70 71 73 76 78 79 80 81 81 83 84 85 88 90 92 92 93 95 96 99 102 106 106 107 109 111 113 113 116 119 119 121 121 122 127 128 131 131
79 80 79 80 82 83 84 85 88 90 90 90 93 95 95 97 100 102 104 106 109 111 115 117 119 120 122 127 126 121 121 124 131 129 130 134 133 133
79 80 81 83 83 85 86 87 90 92 94 95 98 101 102 103 106 110 112 114 114 116 120 125 127 125 129 128 128 131 132 134 129 129 133 130 127 123
81 84 87 92 96 94 98 98 100 100 98 100 104 105 108 110 111 114 116 118 121 124 125 126 127 132 129 130 135 142 135 131 130 130 128 124 124 120
91 93 98 102 106 110 110 108 107 106 107 111 113 115 114 115 119 122 125 129 132 135 141 137 134 140 141 140 145 138 139 137 132 127 122 120 117 116
98 101 104 106 109 106 108 108 113 116 118 119 122 129 129 130 132 133 134 136 140 143 149 145 139 140 142 151 144 141 129 124 121 120 117 116 112 108
103 105 107 109 112 113 115 120 124 127 129 131 134 134 136 136 138 140 142 144 147 152 154 148 144 143 142 139 131 125 123 121 117 113 112 111 106 102
116 120 116 115 118 122 127 130 133 136 137 139 139 140 142 144 147 149 151 153 157 155 151 145 145 145 138 130 123 121 118 113 109 105 101 99 97 95
122 122 125 127 128 132 137 140 139 141 144 144 143 147 149 149 152 155 161 158 154 151 145 142 135 130 122 121 115 111 106 103 102 98 94 89 89 87

GFSNE_250_spd_102.txt.gz
Wind_Speed
53 48 43 46 51 57 51 49 51 50 51 49 47 48 46 40 35 36 37 44 37 40 44 47 48 51 54 49 54 59 60 56 58 49 46 45 45 48
57 53 47 46 44 49 52 54 54 53 53 52 53 48 48 43 42 38 40 41 42 46 50 51 55 55 58 56 56 55 55 61 53 48 45 45 47 50
51 49 48 47 51 50 48 46 50 54 56 52 52 48 38 39 44 43 45 47 48 51 54 55 59 59 55 60 57 53 56 54 50 49 50 50 52 54
48 50 41 44 43 51 53 48 50 51 47 50 53 52 44 47 49 49 50 52 54 56 59 62 65 65 60 69 60 53 52 54 54 53 53 56 57 57
36 32 33 37 39 50 54 54 51 50 49 47 50 47 48 53 53 53 55 56 57 61 65 68 67 67 68 66 55 53 54 59 55 57 59 60 59 59
38 36 33 35 38 42 46 52 56 57 58 53 49 51 53 54 56 58 61 63 64 65 71 68 71 69 66 56 57 61 60 58 59 61 63 61 63 65
32 40 41 39 42 37 42 50 52 53 56 51 53 56 57 58 60 62 65 68 68 72 71 71 70 69 67 70 66 65 62 64 67 68 66 67 70 72
40 40 40 39 40 42 46 49 51 49 48 54 56 58 58 58 61 66 70 70 70 73 74 77 75 69 66 66 65 67 68 70 69 69 71 74 75 74
45 42 45 44 45 46 47 50 49 52 52 53 58 59 61 64 67 69 67 69 72 75 79 77 66 65 65 65 69 70 70 70 72 74 76 77 80 79
48 45 43 47 50 51 54 55 54 55 58 60 60 64 67 68 70 68 70 75 77 81 74 67 67 67 69 72 73 72 72 73 76 79 81 83 83 82
47 43 44 48 50 52 54 56 57 59 59 62 64 66 69 71 72 75 78 79 82 77 72 71 71 74 75 76 75 75 77 80 80 84 87 86 85 87
52 50 50 52 53 55 54 56 57 61 61 63 66 69 72 75 78 79 81 83 80 75 74 75 77 81 81 80 80 81 81 81 84 90 91 92 94 99
54 56 57 57 57 58 59 61 63 65 68 70 72 74 77 80 85 88 86 80 76 76 80 83 84 84 83 84 83 84 87 90 96 97 98 102 105 112
60 62 63 66 67 67 67 68 71 72 73 77 82 86 87 85 82 79 79 81 84 85 85 87 89 89 90 93 92 92 96 98 101 101 101 107 110 112
69 71 72 74 74 76 80 82 81 80 79 77 76 76 78 80 81 83 82 80 83 87 89 91 91 95 92 93 95 100 103 105 111 110 109 114 118 121
61 62 63 64 66 67 69 72 73 74 75 77 77 79 80 81 82 84 84 86 88 89 90 91 93 97 98 103 106 109 110 118 116 116 120 124 125 127
70 70 70 71 72 73 74 75 76 79 80 80 83 85 83 84 87 89 91 91 92 94 95 97 101 105 109 109 114 115 121 120 122 125 128 129 133 136
75 76 76 77 78 80 81 82 84 85 86 86 88 86 87 91 94 95 95 95 97 100 103 107 112 112 116 120 123 124 124 126 127 130 132 133 138 146
85 86 85 85 85 87 88 89 87 87 88 89 92 94 94 96 98 99 101 104 104 106 109 111 113 123 123 128 125 125 130 134 135 137 142 145 145 151
88 91 93 94 91 90 91 90 90 90 89 90 92 97 100 101 105 108 108 110 112 114 118 120 126 126 129 128 131 136 138 138 141 146 150 150 154 158
92 93 91 92 93 92 94 94 97 100 99 99 102 104 105 110 111 112 115 118 119 123 126 130 131 135 134 136 140 144 148 149 153 153 152 155 158 159
99 98 95 95 99 101 99 103 105 107 107 110 109 109 112 115 117 120 122 124 128 131 134 133 136 138 141 144 144 148 152 157 156 157 154 150 156 158
111 113 111 108 105 104 106 108 109 114 115 118 119 116 119 124 127 129 130 134 137 139 142 145 145 147 148 149 153 154 153 154 153 151 156 148 137 132